Location: Huntsville
(41.2590°N, 111.7678°W)
Time: 14:34:59
(UTC+00:00)

Courier 1B Rocket - Pass Details

Date: 17 June 2021
Orbit: 920 x 1202 km, 28.2° (Epoch: 24 July)

Event Time Altitude Azimuth Distance (km) Brightness Sun altitude
Rises 06:32:27 0° 253° (WSW) 3,585 7.9 -24.1°
Enters shadow 06:35:33 10° 239° (WSW) 2,658 7.1 -24.2°
Reaches altitude 10° 06:35:42 10° 238° (WSW) 2,618 - -24.2°
Maximum altitude 06:40:17 21° 190° (S) 1,911 - -24.4°
Drops below altitude 10° 06:44:51 10° 143° (SE) 2,607 - -24.6°
Sets 06:48:04 0° 128° (SE) 3,567 - -24.7°
